This is the latest recevied weather packets stored in our database for station/object DL9NEE-10. If no packets are shown the sender has not sent any weather packets the latest 10 day(s).
| Time | Temp. | Humidity | Pressure | Rain* | Wind** | Luminosity | Snow |
|---|---|---|---|---|---|---|---|
| 1777659603 | 22.22° C | 34% | 1025.5 hPa | - | - | - | - |
| 1777658702 | 22.78° C | 33% | 1025.4 hPa | - | - | - | - |
| 1777657802 | 23.33° C | 33% | 1025.4 hPa | - | - | - | - |
| 1777656902 | 23.89° C | 32% | 1025.4 hPa | - | - | - | - |
| 1777656002 | 23.89° C | 32% | 1025.3 hPa | - | - | - | - |
| 1777655102 | 24.44° C | 31% | 1025.3 hPa | - | - | - | - |
| 1777654202 | 25° C | 31% | 1025.5 hPa | - | - | - | - |
| 1777653302 | 26.11° C | 30% | 1025.5 hPa | - | - | - | - |
| 1777652401 | 27.22° C | 29% | 1025.6 hPa | - | - | - | - |
| 1777651501 | 28.89° C | 27% | 1025.7 hPa | - | - | - | - |
| 1777650601 | 32.78° C | 26% | 1025.9 hPa | - | - | - | - |
| 1777649701 | 33.89° C | 26% | 1026.1 hPa | - | - | - | - |
| 1777648801 | 32.22° C | 26% | 1026.3 hPa | - | - | - | - |
| 1777647901 | 33.89° C | 25% | 1026.4 hPa | - | - | - | - |
| 1777647001 | 33.89° C | 25% | 1026.5 hPa | - | - | - | - |
| 1777646101 | 32.78° C | 26% | 1026.7 hPa | - | - | - | - |
| 1777645200 | 31.67° C | 26% | 1026.7 hPa | - | - | - | - |
| 1777644300 | 31.67° C | 27% | 1026.9 hPa | - | - | - | - |
| 1777643400 | 30° C | 27% | 1027 hPa | - | - | - | - |
| 1777642500 | 31.11° C | 27% | 1027.2 hPa | - | - | - | - |
| 1777641600 | 30° C | 28% | 1027.3 hPa | - | - | - | - |
| 1777640700 | 28.89° C | 28% | 1027.6 hPa | - | - | - | - |
| 1777639799 | 29.44° C | 28% | 1027.7 hPa | - | - | - | - |
| 1777638899 | 28.89° C | 29% | 1027.9 hPa | - | - | - | - |
| 1777637999 | 28.33° C | 30% | 1028 hPa | - | - | - | - |
* Rain since midnight (hover to see other rain measurements)
** Current wind speed in m/s (hover to see current wind gust speed)